Regional Weather Roundup
Issued by NWS

Home | Current Version | Previous Version | Graphics & Text | Print | Product List | Glossary On
Versions: 1 2 3 4 5 6 7 8 9 10 11 12 13 14 15 16 17 18 19 20 21 22 23 24 25 26 27 28 29 30 31 32 33 34 35 36 37 38 39 40 41 42 43 44 45 46 47 48 49 50
382
ASUS43 KLOT 240904
RWRIL

ILLINOIS REGIONAL WEATHER ROUNDUP
NATIONAL WEATHER SERVICE CHICAGO/ROMEOVILLE IL
400 AM CDT TUE OCT 24 2017

NOTE: "FAIR" INDICATES FEW OR NO CLOUDS BELOW 12,000 FEET WITH NO
SIGNIFICANT WEATHER AND/OR OBSTRUCTIONS TO VISIBILITY.

* THESE STATIONS ARE NOT UNDER NWS QUALITY CONTROL. THEY ALSO MAY NOT
  REPORT WEATHER SUCH AS PRECIPITATION OR FOG.

ILZ001-002-007-009-015-016-024-241000-
NORTHWEST ILLINOIS

CITY           SKY/WX    TMP DP  RH WIND       PRES   REMARKS
MOLINE         CLOUDY    49  33  54 NW15      29.66F
STERLING*      LGT RAIN  47  41  80 W16         N/A
SAVANNA*       RAIN      47  40  74 NW10G17   29.63R
$$

ILZ003-004-008-010-011-017-018-241000-
NORTH CENTRAL ILLINOIS

CITY           SKY/WX    TMP DP  RH WIND       PRES   REMARKS
ROCKFORD       LGT RAIN  46  43  89 NW16      29.58F
FREEPORT*      RAIN      44  42  91 W16G22    29.61S
ROCHELLE*      DRIZZLE   46  44  93 W12       29.58F
DE KALB*       LGT RAIN  46  45  95 W10G16    29.56F
PERU*          CLOUDY    47  39  75 W15       29.61F
$$

ILZ005-006-012>014-019>023-241000-
NORTHEAST ILLINOIS

CITY           SKY/WX    TMP DP  RH WIND       PRES   REMARKS
CHICAGO-OHARE  LGT RAIN  48  45  89 W9        29.52F
CHICAGO-MIDWAY LGT RAIN  48  46  93 W13       29.54F FOG
AURORA         LGT RAIN  47  45  93 W10       29.56F
LANSING*       LGT RAIN  47  47  97 W12       29.56S
JOLIET*        RAIN      48  46  93 W7        29.57F
WAUKEGAN       LGT RAIN  48  47  96 VRB6      29.48F FOG
DUPAGE AIRPORT LGT RAIN  46  46 100 W9        29.54F FOG
KANKAKEE*      CLOUDY    47  44  87 W10       29.59F
WHEELING       LGT RAIN  48  47  96 W10       29.52F
MORRIS*        LGT RAIN  47  45  90 W12G17    29.57F
ROMEOVILLE*    DRIZZLE   46  44  93 W10       29.56F
NORTHERLY ISL    N/A     48  45  89 W8          N/A
$$

LMZ740>746-241000-
SOUTHERN LAKE MICHIGAN

STATION/POSITION SKY/WX   TEMP    WIND        PRES    VSBY  WAVE
                          AIR SEA DIR/SP/G                  HT/PER
                          (F)     (DEG/KT/KT) (MB)    (MI)  (FT/S)
SOUTHERN BUOY              53 60  320/ 16/ 17  998.2          3/ 4
WILMETTE HARBOR            49 56  260/ 16/ 19   N/A           2/ 5
HARRISON CRIB              50     280/ 16/ 20   N/A
BURNHAM HARBOR             48     230/  5/ 12   N/A
CALUMET HARBOR             48     240/  6/ 10 1000.0F
BURNS HARBOR               50     230/ 12/ 15 1000.7F
MICHIGAN CITY              51     240/ 20/ 21   N/A
MICHIGAN CITY 6N           51 57  250/ 17/ 21   N/A           5/ 5
ST. JOSEPH                 53 57  280/ 19/ 25  999.2F         7/ 5
$$

ILZ025>027-034>036-040-047-049-050-058-095>099-241000-
WEST-CENTRAL ILLINOIS

CITY           SKY/WX    TMP DP  RH WIND       PRES   REMARKS
QUINCY         CLOUDY    51  34  52 W20G30    29.76F
MACOMB*        CLOUDY    49  34  56 NW17G23   29.73S
JACKSONVILLE*  CLOUDY    50  34  55 W15G24    29.74F
PITTSFIELD*    CLOUDY    51  35  53 W12G20    29.77F
$$

ILZ028>032-037-038-041>044-048-051>054-059>061-241000-
CENTRAL ILLINOIS

CITY           SKY/WX    TMP DP  RH WIND       PRES   REMARKS
PONTIAC        LGT RAIN  48  46  93 W13       29.62F
BLOOMINGTON    CLOUDY    46  39  76 W15       29.65F
DECATUR        CLOUDY    48  39  71 W13G20    29.69F
PEORIA         CLOUDY    48  35  60 NW13G22   29.66F
LACON*         DRIZZLE   47  38  70 W12       29.63F
LINCOLN*       CLOUDY    49  39  68 W7        29.69S
SPRINGFIELD    CLOUDY    50  39  66 W13       29.72F
TAYLORVILLE    CLOUDY    48  37  66 W8        29.72F
$$

ILZ033-039-045-046-055>057-062-063-241000-
EAST-CENTRAL ILLINOIS

CITY           SKY/WX    TMP DP  RH WIND       PRES   REMARKS
DANVILLE*      PTCLDY    45  42  90 W14       29.62F
RANTOUL*       CLOUDY    48  45  90 W12       29.64F
MATTOON        CLOUDY    48  41  76 W13       29.70F
PARIS*         MOCLDY    46  44  90 W12G17    29.69F
$$

ILZ079-100>102-241000-
SOUTHWEST ILLINOIS

CITY           SKY/WX    TMP DP  RH WIND       PRES   REMARKS
ALTON          CLOUDY    50  37  61 W16       29.78F
BELLEVILLE     CLOUDY    51  34  53 W6        29.79F
CAHOKIA*       CLOUDY    54  32  43 W8G20     29.80F
SPARTA*        CLOUDY    50  35  55 W8        29.83F
$$

ILZ064>066-069>071-074>076-080>082-084>086-088>090-092>094-241000-
SOUTH-CENTRAL ILLINOIS

CITY           SKY/WX    TMP DP  RH WIND       PRES   REMARKS
CARBONDALE     PTCLDY    51  37  58 W15G24    29.83S
CAIRO*         CLEAR     51  40  64 W9        29.87S
EFFINGHAM*     CLOUDY    49  43  79 W12       29.75F
MARION         CLEAR     52  39  61 W7        29.83S
MT. VERNON     CLOUDY    51  41  68 W12       29.78F
CENTRALIA*     CLOUDY    50  42  72 W12G22    29.78R
SALEM*         CLOUDY    51  41  70 W12       29.77S
METROPOLIS*    CLEAR     53  39  58 W8        29.85F
$$

ILZ067-068-072-073-078-083-087-091-241000-
SOUTHEAST ILLINOIS

CITY           SKY/WX    TMP DP  RH WIND       PRES   REMARKS
LAWRENCEVILLE  LGT RAIN  50  45  83 W9        29.74S
FLORA*         CLOUDY    52  42  67 W9        29.76F
FAIRFIELD*     MOCLDY    50  43  78 CALM      29.76F
HARRISBURG*    CLEAR     49  43  79 S9        29.81F
ROBINSON*      CLOUDY    48  43  82 W16G22    29.73S
CARMI*         MOCLDY    49  43  79 W8        29.78S
$$

ABBREVIATIONS USED IN REMARKS
   TC - TEMPERATURE IN CELSIUS
  WCI - WIND CHILL INDEX
   HX - HEAT INDEX
  VSB - VISIBILITY
$$





USA.gov is the U.S. government's official web portal to all federal, state and local government web resources and services.